Other Public Products
Issued by NWS Grand Forks, ND

Home | Current Version | Previous Version | Text Only | Print | Product List | Glossary On
Versions: 1 2 3 4 5 6 7 8 9 10 11 12 13 14 15 16 17 18 19 20 21 22 23 24 25 26 27 28 29 30 31 32 33 34 35 36 37 38 39 40 41 42 43 44 45 46 47 48 49 50
000
FPUS83 KFGF 101431
OPUFGF
PRAIRIE TO PINES WEATHER ROUNDUP
NATIONAL WEATHER SERVICE EASTERN NORTH DAKOTA/GRAND FORKS ND
900 AM CDT THU JUL 10 2014

 **SATELLITE DATA USED TO AUGMENT SKY COVER AT AUTOMATED STATIONS**
 *****  WEATHER ACROSS EASTERN NORTH DAKOTA  *****

CITY           SKY/WX    TMP DP  RH WIND       PRES   REMARKS
GRAND FORKS    MOSUNNY   66  55  67 S12       29.95R
GRAND FORKS AF SUNNY     67  57  70 S12       29.95S
GRAND CITY NWS   N/A     68 N/A N/A SE16        N/A
BUXTON           N/A     67  61  79 S9          N/A
DEVILS LAKE    SUNNY     70  55  60 S14       29.89S
FARGO          SUNNY     70  55  59 S12       29.98R
WAHPETON ARPT  SUNNY     68  52  56 S13       29.99S
$$

 *****  WEATHER ACROSS CENTRAL AND WESTERN NORTH DAKOTA  *****

CITY           SKY/WX    TMP DP  RH WIND       PRES   REMARKS
JAMESTOWN      MOSUNNY   66  58  75 S13       29.93F
BISMARCK       CLOUDY    64  58  80 SE7       29.89S
MINOT          CLOUDY    68  57  68 S16G22    29.83S
MINOT AFB      CLOUDY    68  61  79 SW10      29.83R
GARRISON         N/A     65  59  81 S5        29.87R
WILLISTON      LGT RAIN  69  56  62 NW5       29.82R
DICKINSON      CLOUDY    63  59  87 W5        29.87S
HETTINGER      CLOUDY    61  57  87 SE8G17    29.86F
$$

 *****  OTHER OBSERVATIONS NORTHEAST NORTH DAKOTA  *****

CITY           SKY/WX    TMP DP  RH WIND       PRES   REMARKS
WALHALLA         N/A     66  59  77 S8          N/A
LANGDON        FAIR      66  59  77 S14       29.91S
CAVALIER       FAIR      64  55  72 S14       29.91S
GRAFTON        FAIR      66  55  68 S12G18    29.93F
CANDO          FAIR      68  59  73 S10       29.89S
FORT TOTTEN    NOT AVBL
ROLLA          FAIR      66  61  82 SW15      29.89S
RUGBY          FAIR      66  61  82 S12       29.86F
 ***** THE ABOVE OBSERVATIONS ARE NON NWS ARE NOT QUALITY
        CONTROLLED AND MAY MIS-REPORT RAIN FOR SNOW...
$$

 *****  OTHER OBSERVATIONS SOUTHEAST NORTH DAKOTA *****

CITY           SKY/WX    TMP DP  RH WIND       PRES   REMARKS
COOPERSTOWN    NOT AVBL
VALLEY CITY    FAIR      66  59  77 S12       29.95S
OAKES          NOT AVBL
GWINNER        SUNNY     70  59  68 SE8       29.97F
SHEYENNE NWR     N/A     68  58  70 S7        29.95
BUFFALO          N/A     68  54  59 S13         N/A
WYNDMERE       NOT AVBL
 ***** THE ABOVE OBSERVATIONS ARE NON NWS ARE NOT QUALITY
       CONTROLLED AND MAY MIS-REPORT RAIN FOR SNOW...
$$

  *****  WEATHER ACROSS NORTHERN MINNESOTA  *****

CITY           SKY/WX    TMP DP  RH WIND       PRES   REMARKS
FLAG ISLAND    SUNNY     66  57  72 S9        29.96S
WARROAD        SUNNY     66  57  72 S7        29.98S HAZE
ROSEAU         SUNNY     68  57  68 S10       29.97S
HALLOCK        SUNNY     68  55  64 S15       29.93S
THF RVR FALLS  SUNNY     68  55  64 S9        29.98S
HALSTAD          N/A     69  55  60 S12         N/A
FOSSTON        SUNNY     68  54  60 CALM      30.01S
BAUDETTE       SUNNY     67  56  67 S6        30.00S
WASKISH        SUNNY     66  55  68 S5        30.01S
CROOKSTON      SUNNY     68  55  64 S12       29.98R
$$
  *****  WEATHER ACROSS CENTRAL AND WEST MINNESOTA  *****

CITY           SKY/WX    TMP DP  RH WIND       PRES   REMARKS
BEMIDJI        SUNNY     67  55  66 SW8       30.02S
PARK RAPIDS    SUNNY     66  55  67 S6        30.03S
WADENA         SUNNY     68  55  64 SE7       30.03S
DETROIT LAKES  SUNNY     68  55  64 S9        30.03R
MOORHEAD       SUNNY     72  57  60 SE10      29.98F
FERGUS FALLS   SUNNY     70  54  56 S9        30.01R
ELBOW LAKE     FAIR      68  55  64 SE12      30.01S
MORRIS MN      SUNNY     70  57  64 SE7       30.00S
STAPLES        SUNNY     66  54  63 S5        30.04S
WHEATON        SUNNY     66  55  68 SE10      30.00S
$$
  *****  WEATHER ELSEWHERE ACROSS MINNESOTA  *****

CITY           SKY/WX    TMP DP  RH WIND       PRES   REMARKS
DULUTH         SUNNY     66  55  67 S7        30.07S
INTRNTL FALLS  SUNNY     66  54  65 S6        30.01F
ELY            SUNNY     66  55  68 S7        30.06F
CLOQUET        SUNNY     66  55  68 S5        30.06S
BRAINERD       SUNNY     71  57  61 S3        30.05R
HIBBING        SUNNY     64  54  69 VRB3      30.05F
ALEXANDRIA     SUNNY     68  54  60 SE10      30.04S
SAINT CLOUD    MOSUNNY   69  59  70 SE5       30.04S
MINNEAPOLIS    MOSUNNY   67  59  75 E6        30.06S
$$

  *****  WEATHER ACROSS SOUTH DAKOTA  *****

CITY           SKY/WX    TMP DP  RH WIND       PRES   REMARKS
SIOUX FALLS    PTSUNNY   70  61  73 S12       30.03R
BROOKINGS      NOT AVBL
WATERTOWN      SUNNY     66  58  75 S10       30.00S
HURON          SUNNY     68  59  73 S8        29.95F
SISSETON         N/A     66  58  75 S7        29.97F
ABERDEEN       SUNNY     67  60  78 S6        29.95S
MITCHELL       SUNNY     69  62  78 SE13      29.97F
PIERRE         SUNNY     67  60  78 SE15      29.89F
MOBRIDGE       PTSUNNY   66  60  81 S10       29.87F
RAPID CITY     CLOUDY    62  60  93 S10       29.86F
$$

  *****  SOME WEATHER IN NEARBY STATES *****

CITY           SKY/WX    TMP DP  RH WIND       PRES   REMARKS
GLASGOW MT     SUNNY     74  60  61 S17       29.72S
GREAT FALLS MT SUNNY     64  52  64 NW8       29.92R
CHEYENNE WY    SUNNY     77  44  30 W13G21    30.10R
SCOTTSBLUFF NE SUNNY     65  57  75 E7        29.97S
OMAHA NE       PTSUNNY   71  61  70 SE12      30.05S
DES MOINES IA  MOSUNNY   72  60  66 S9        30.11R
DAVENPORT IA   SUNNY     70  60  70 S7        30.16R
CHICAGO IL     MOSUNNY   71  56  58 CALM      30.15R
EAU CLAIRE WI  SUNNY     69  57  65 S6        30.09S
LA CROSSE WI   MOSUNNY   72  56  57 S9        30.10S
$$

  *****  SOME NATIONAL WEATHER *****

CITY           SKY/WX    TMP DP  RH WIND       PRES   REMARKS
LA GUARDIA NY  PTSUNNY   72  61  68 NE12G18   30.10R
RALEIGH NC     CLOUDY    79  72  79 SW5       30.09R
ATLANTA GA     PTSUNNY   79  69  71 CALM      30.10S
NEW ORLEANS LA MOSUNNY   84  76  76 W3        30.10R HX  93
OKLAHOMA CITY  CLOUDY    77  69  76 NE16      30.05S
ALBUQUERQUE NM MOSUNNY   70  56  61 SE6       30.19R
SALT LAKE CITY CLOUDY    73  60  63 SE7       30.00R
LOS ANGELES CA CLOUDY    68  60  75 CALM      29.97R
BOISE ID       MOSUNNY   73  50  44 SE7       29.92S
SEATTLE WA     PTSUNNY   55  54  96 S5        29.99R FOG
$$

*** WEATHER ACROSS MANITOBA...SASKATCHEWAN AND ONTARIO ***
                ***ONTARIO***

CITY           SKY/WX    TMP DP  RH WIND       PRES   REMARKS
GERALDTON      MOSUNNY   66  48  52 SW9       30.07F
THUNDER BAY    PTSUNNY   63  52  67 VRB2      30.09S
SIOUX LOOKOUT  MOSUNNY   64  52  63 VRB2      30.02S
TORONTO        MOSUNNY   66  50  55 N3        30.18R
BIG TROUT LK   PTSUNNY   63  54  72 SW7       29.84S
PICKLE LAKE    MOSUNNY   66  48  52 SW10      29.98S
DRYDEN         SUNNY     66  54  63 SW7       30.01S
KENORA         PTSUNNY   66  55  68 S9        29.99F
$$
                *** MANITOBA***

CITY           SKY/WX    TMP DP  RH WIND       PRES   REMARKS
BRANDON        MOSUNNY   70  61  73 S8        29.82S
DAUPHIN        CLOUDY    72  59  64 SW14G20   29.73F
ISLAND LAKE    PTSUNNY   64  55  72 SW7       29.81F
PILOT MOUND      N/A     64  59  82 S12         N/A
THE PAS        LGT RAIN  66  61  82 SE12      29.61F
THOMPSON       SHOWER   N/A N/A N/A E6          N/A
WINNIPEG       MOSUNNY   68  54  60 S16G23    29.89F
LYNN LAKE      CLOUDY    61  57  88 E14G20    29.64F
CHURCHILL      CLOUDY    48  48 100 E10       29.85S
GILLAM         PTSUNNY   59  55  88 E3        29.77S
$$
                ***SASKATCHEWAN***

CITY           SKY/WX    TMP DP  RH WIND       PRES   REMARKS
ESTEVAN        PTSUNNY   70  57  64 S15       29.75F
KINDERSLEY     MOSUNNY   61  57  88 NW10      29.79R
LLOYDMINSTER   PTSUNNY   55  46  71 NW12G20   29.79S
PRINCE ALBERT  PTSUNNY   63  61  94 NW14      29.64R
REGINA         SUNNY     68  61  77 SE16      29.68F


USA.gov is the U.S. government's official web portal to all federal, state and local government web resources and services.